FW6321 Weather Reports


time (UTC)temp
C
wind
direction
speed
KPH
gust
KPH
rain 1hr
cm
rain 24hr
cm
rain mn
cm
humidity
%
barometer
mb
20260508234028 10 72 8.0 11.3 0.00 0.00 0.00 85 1019.7
20260508233526 10 71 8.0 11.3 0.00 0.00 0.00 85 1019.8
20260508233025 10 54 8.0 11.3 0.00 0.00 0.00 86 1019.7
20260508232525 10 58 6.4 11.3 0.00 0.00 0.00 86 1019.8
20260508232025 10 56 4.8 9.7 0.00 0.00 0.00 87 1019.7
20260508231524 10 72 3.2 9.7 0.00 0.00 0.00 86 1019.7
20260508231116 10 63 3.2 6.4 0.00 0.00 0.00 85 1019.6
20260508225519 10 0 1.6 3.2 0.00 0.00 0.00 84 1019.7
20260508225017 10 0 1.6 3.2 0.00 0.00 0.00 84 1019.6
20260508224517 10 0 1.6 3.2 0.00 0.00 0.00 82 1019.7
20260508224016 10 0 1.6 3.2 0.00 0.00 0.00 82 1019.6
20260508223514 10 0 1.6 4.8 0.00 0.00 0.00 82 1019.7
20260508223013 10 0 1.6 4.8 0.00 0.00 0.00 81 1019.7
20260508222512 11 0 1.6 4.8 0.00 0.00 0.00 80 1019.8
20260508222014 11 0 0.0 3.2 0.00 0.00 0.00 80 1019.8
20260508221513 11 0 1.6 3.2 0.00 0.00 0.00 80 1019.7
20260508221056 11 0 1.6 4.8 0.00 0.00 0.00 80 1019.8
20260508215510 11 354 3.2 6.4 0.00 0.00 0.00 79 1019.7
20260508215009 11 15 1.6 6.4 0.00 0.00 0.00 79 1019.7
20260508214507 11 16 1.6 6.4 0.00 0.00 0.00 78 1019.7
20260508214034 12 35 3.2 6.4 0.00 0.00 0.00 77 1019.8
20260508213008 12 29 1.6 3.2 0.00 0.00 0.00 76 1019.8
20260508212528 12 29 1.6 3.2 0.00 0.00 0.00 76 1019.9
20260508211505 12 10 1.6 4.8 0.00 0.00 0.00 75 1019.9
20260508211031 12 2 1.6 6.4 0.00 0.00 0.00 75 1019.8
20260508210007 12 13 1.6 6.4 0.00 0.00 0.00 74 1019.7
20260508205504 12 16 3.2 6.4 0.00 0.00 0.00 74 1019.6
20260508205005 13 2 3.2 6.4 0.00 0.00 0.00 74 1019.6
20260508204503 13 10 3.2 6.4 0.00 0.00 0.00 74 1019.7
20260508204005 13 44 1.6 3.2 0.00 0.00 0.00 74 1019.6
20260508203504 13 357 0.0 3.2 0.00 0.00 0.00 73 1019.7
20260508203003 13 357 1.6 6.4 0.00 0.00 0.00 73 1019.6
20260508202502 13 357 3.2 8.0 0.00 0.00 0.00 72 1019.6
20260508202005 13 356 3.2 8.0 0.00 0.00 0.00 72 1019.7
20260508201502 13 330 1.6 4.8 0.00 0.00 0.00 72 1019.7
20260508201014 13 356 0.0 3.2 0.00 0.00 0.00 71 1019.6
20260508200503 13 356 1.6 6.4 0.00 0.00 0.00 71 1019.6
20260508200001 13 9 3.2 6.4 0.00 0.00 0.00 71 1019.6
20260508195505 13 0 3.2 6.4 0.00 0.00 0.00 71 1019.6
20260508195003 13 349 3.2 6.4 0.00 0.00 0.00 71 1019.5
20260508194501 13 1 1.6 6.4 0.00 0.00 0.00 71 1019.5
20260508194011 13 27 0.0 4.8 0.00 0.00 0.00 71 1019.5
20260508193530 13 8 1.6 3.2 0.00 0.00 0.00 71 1019.5
20260508192459 13 12 0.0 3.2 0.00 0.00 0.00 70 1019.4
20260508192000 13 49 1.6 4.8 0.00 0.00 0.00 69 1019.3
20260508191504 14 48 3.2 8.0 0.00 0.00 0.00 69 1019.2
20260508191003 14 335 3.2 8.0 0.00 0.00 0.00 68 1019.3
20260508190501 14 16 1.6 4.8 0.00 0.00 0.00 69 1019.2
20260508190037 14 12 3.2 4.8 0.00 0.00 0.00 68 1019.1
20260508184952 15 335 3.2 4.8 0.00 0.00 0.00 67 1019.0
20260508184452 15 335 3.2 6.4 0.00 0.00 0.00 67 1019.0
20260508183953 15 354 3.2 8.0 0.00 0.00 0.00 66 1019.0
20260508183450 15 341 4.8 9.7 0.00 0.00 0.00 66 1018.9
20260508182952 15 330 6.4 11.3 0.00 0.00 0.00 66 1018.8
20260508182455 15 357 6.4 11.3 0.00 0.00 0.00 67 1018.8
20260508181950 15 12 4.8 11.3 0.00 0.00 0.00 66 1018.7
20260508181449 15 352 4.8 8.0 0.00 0.00 0.00 67 1018.8
20260508180949 15 330 6.4 8.0 0.00 0.00 0.00 67 1018.7
20260508180448 15 330 6.4 8.0 0.00 0.00 0.00 67 1018.8
20260508175945 15 358 6.4 12.9 0.00 0.00 0.00 66 1018.7
20260508175445 15 6 6.4 12.9 0.00 0.00 0.00 65 1018.7
20260508174944 15 335 6.4 11.3 0.00 0.00 0.00 66 1018.7
20260508174445 15 354 6.4 14.5 0.00 0.00 0.00 66 1018.6
20260508174027 16 347 8.0 16.1 0.00 0.00 0.00 65 1018.6
20260508172942 16 354 8.0 17.7 0.00 0.00 0.00 64 1018.6
20260508172443 16 345 8.0 14.5 0.00 0.00 0.00 64 1018.5
20260508171942 16 345 9.7 17.7 0.00 0.00 0.00 64 1018.4
20260508171442 16 302 9.7 17.7 0.00 0.00 0.00 63 1018.4
20260508171025 16 330 8.0 14.5 0.00 0.00 0.00 63 1018.4
20260508165942 16 357 8.0 14.5 0.00 0.00 0.00 64 1018.3
20260508165439 16 308 8.0 16.1 0.00 0.00 0.00 61 1018.2
20260508165004 16 351 8.0 16.1 0.00 0.00 0.00 61 1018.1
20260508163938 16 330 6.4 14.5 0.00 0.00 0.00 61 1018.0
20260508163439 17 347 6.4 16.1 0.00 0.00 0.00 62 1018.1
20260508162937 17 353 4.8 16.1 0.00 0.00 0.00 62 1018.0
20260508162435 17 352 6.4 14.5 0.00 0.00 0.00 63 1018.0
20260508161936 17 6 8.0 16.1 0.00 0.00 0.00 62 1018.0
20260508161509 17 8 9.7 19.3 0.00 0.00 0.00 61 1018.0
20260508160433 17 44 8.0 16.1 0.00 0.00 0.00 61 1018.0
20260508155933 17 49 8.0 16.1 0.00 0.00 0.00 62 1018.0
20260508155436 17 60 9.7 17.7 0.00 0.00 0.00 60 1018.0
20260508154933 17 3 8.0 17.7 0.00 0.00 0.00 60 1018.0
20260508154436 17 2 4.8 14.5 0.00 0.00 0.00 63 1018.1
20260508153935 17 357 4.8 9.7 0.00 0.00 0.00 55 1018.1
20260508153433 17 52 6.4 12.9 0.00 0.00 0.00 56 1018.2
20260508152934 17 68 6.4 12.9 0.00 0.00 0.00 56 1018.1
20260508152433 17 48 4.8 11.3 0.00 0.00 0.00 55 1018.3
20260508151934 17 108 3.2 6.4 0.00 0.00 0.00 54 1018.3
20260508151433 17 41 3.2 6.4 0.00 0.00 0.00 60 1018.2
20260508150934 17 4 4.8 8.0 0.00 0.00 0.00 57 1018.2
20260508150536 17 19 4.8 11.3 0.00 0.00 0.00 58 1018.3
20260508144930 16 31 3.2 12.9 0.00 0.00 0.00 54 1018.3
20260508144430 16 89 4.8 12.9 0.00 0.00 0.00 56 1018.3
20260508143931 16 87 4.8 11.3 0.00 0.00 0.00 55 1018.4
20260508143441 16 46 4.8 11.3 0.00 0.00 0.00 60 1018.5
20260508142930 16 60 3.2 11.3 0.00 0.00 0.00 58 1018.4
20260508142429 16 127 3.2 8.0 0.00 0.00 0.00 58 1018.4
20260508142050 16 128 6.4 16.1 0.00 0.00 0.00 56 1018.5
20260508141729 16 41 6.4 16.1 0.00 0.00 0.00 60 1018.4
20260508135430 16 96 4.8 11.3 0.00 0.00 0.00 62 1018.4
20260508134940 16 100 6.4 14.5 0.00 0.00 0.00 61 1018.5
20260508134431 16 79 6.4 14.5 0.00 0.00 0.00 63 1018.5
20260508133946 16 81 4.8 12.9 0.00 0.00 0.00 64 1018.4
20260508133551 17 62 6.4 16.1 0.00 0.00 0.00 63 1018.6
20260508132432 18 106 6.4 12.9 0.00 0.00 0.00 63 1018.6
20260508132009 18 67 4.8 12.9 0.00 0.00 0.00 59 1018.6
20260508131619 18 71 3.2 12.9 0.00 0.00 0.00 63 1018.6
20260508125936 18 178 4.8 16.1 0.00 0.00 0.00 57 1018.8
20260508125529 18 104 3.2 12.9 0.00 0.00 0.00 59 1018.8
20260508124526 18 52 3.2 12.9 0.00 0.00 0.00 60 1018.8
20260508123426 17 70 6.4 12.9 0.00 0.00 0.00 66 1018.9
20260508122928 17 325 6.4 16.1 0.00 0.00 0.00 66 1018.9
20260508122423 17 5 6.4 16.1 0.00 0.00 0.00 67 1018.9
20260508121922 17 33 3.2 12.9 0.00 0.00 0.00 63 1018.9
20260508121422 17 134 4.8 11.3 0.00 0.00 0.00 65 1018.9
20260508120922 17 120 8.0 17.7 0.00 0.00 0.00 66 1019.0
20260508120432 17 144 6.4 17.7 0.00 0.00 0.00 68 1019.0
20260508115934 17 58 3.2 9.7 0.00 0.00 0.00 68 1018.9
20260508115503 17 136 6.4 16.1 0.00 0.00 0.00 63 1019.1
20260508114424 17 125 3.2 6.4 0.00 0.00 0.00 67 1019.0
20260508113959 16 101 4.8 12.9 0.00 0.00 0.00 68 1019.0
20260508112930 16 65 6.4 14.5 0.00 0.00 0.00 73 1019.0
20260508112501 16 71 6.4 14.5 0.00 0.00 0.00 72 1019.1
20260508111502 16 358 6.4 14.5 0.00 0.00 0.00 74 1019.1
20260508110427 16 66 6.4 16.1 0.00 0.00 0.00 75 1019.2
20260508105925 16 351 6.4 16.1 0.00 0.00 0.00 72 1019.2
20260508105419 16 179 4.8 12.9 0.00 0.00 0.00 73 1019.2
20260508104922 16 70 4.8 12.9 0.00 0.00 0.00 75 1019.1
20260508104414 15 19 6.4 12.9 0.00 0.00 0.00 75 1019.2
20260508103917 15 10 6.4 12.9 0.00 0.00 0.00 75 1019.3
20260508103415 15 45 4.8 12.9 0.00 0.00 0.00 75 1019.3
20260508102921 15 75 4.8 12.9 0.00 0.00 0.00 76 1019.2
20260508102416 15 117 3.2 8.0 0.00 0.00 0.00 77 1019.3
20260508101918 14 106 4.8 16.1 0.00 0.00 0.00 77 1019.2
20260508101502 14 100 8.0 16.1 0.00 0.00 0.00 78 1019.3
20260508100413 14 9 6.4 14.5 0.00 0.00 0.00 79 1019.3
20260508095914 14 33 8.0 14.5 0.00 0.00 0.00 79 1019.3
20260508095414 14 83 9.7 14.5 0.00 0.00 0.00 79 1019.3
20260508094914 14 35 6.4 14.5 0.00 0.00 0.00 80 1019.3
20260508094415 14 64 6.4 14.5 0.00 0.00 0.00 82 1019.3
20260508093913 13 43 8.0 14.5 0.00 0.00 0.00 81 1019.2
20260508093412 13 60 9.7 14.5 0.00 0.00 0.00 81 1019.2
20260508092912 13 63 9.7 14.5 0.00 0.00 0.00 82 1019.2
20260508092409 13 74 9.7 14.5 0.00 0.00 0.00 82 1019.2
20260508091910 13 35 8.0 14.5 0.00 0.00 0.00 82 1019.3
20260508091407 13 78 6.4 11.3 0.00 0.00 0.00 82 1019.2
20260508090906 13 70 6.4 11.3 0.00 0.00 0.00 82 1019.2
20260508090407 13 25 8.0 16.1 0.00 0.00 0.00 83 1019.2
20260508085904 13 60 8.0 16.1 0.00 0.00 0.00 83 1019.2
20260508085404 13 49 8.0 12.9 0.00 0.00 0.00 84 1019.3
20260508084904 13 70 6.4 12.9 0.00 0.00 0.00 84 1019.2
20260508084405 13 50 6.4 12.9 0.00 0.00 0.00 85 1019.2
20260508083906 13 40 8.0 12.9 0.00 0.00 0.00 85 1019.2
20260508083404 12 23 8.0 14.5 0.00 0.00 0.00 84 1019.2
20260508082904 12 62 8.0 14.5 0.00 0.00 0.00 85 1019.1
20260508082408 12 71 8.0 12.9 0.00 0.00 0.00 85 1019.1
20260508081902 12 30 6.4 12.9 0.00 0.00 0.00 85 1019.1
20260508081400 12 70 4.8 11.3 0.00 0.00 0.00 86 1019.1
20260508080903 12 68 6.4 11.3 0.00 0.00 0.00 86 1019.1
20260508080404 12 33 4.8 11.3 0.00 0.00 0.00 86 1019.0
20260508075902 12 81 6.4 12.9 0.00 0.00 0.00 86 1019.1
20260508075401 12 74 8.0 12.9 0.00 0.00 0.00 86 1019.1
20260508074901 12 75 6.4 11.3 0.00 0.00 0.00 86 1019.0
20260508074403 11 56 6.4 14.5 0.00 0.00 0.00 86 1019.1
20260508073901 11 51 6.4 14.5 0.00 0.00 0.00 86 1018.9
20260508073358 11 77 6.4 14.5 0.00 0.00 0.00 86 1019.1
20260508072959 11 58 8.0 14.5 0.00 0.00 0.00 86 1019.0
20260508071934 11 78 8.0 12.9 0.00 0.00 0.00 87 1018.9
20260508070944 11 70 8.0 11.3 0.00 0.00 0.00 87 1019.0
20260508065902 11 44 8.0 12.9 0.00 0.00 0.00 87 1018.9
20260508065356 11 65 8.0 12.9 0.00 0.00 0.00 88 1018.9
20260508064854 11 68 9.7 12.9 0.00 0.00 0.00 88 1018.8
20260508064357 11 72 8.0 12.9 0.00 0.00 0.00 88 1018.7
20260508063901 10 71 6.4 12.9 0.00 0.00 0.00 89 1018.7
20260508063403 10 75 8.0 12.9 0.00 0.00 0.00 89 1018.7
20260508062853 10 60 9.7 12.9 0.00 0.00 0.00 89 1018.7
20260508062407 10 54 9.7 14.5 0.00 0.00 0.00 89 1018.6
20260508061902 10 71 9.7 14.5 0.00 0.00 0.00 89 1018.6
20260508061356 10 77 8.0 12.9 0.00 0.00 0.00 90 1018.6
20260508060856 10 94 8.0 12.9 0.00 0.00 0.00 90 1018.6
20260508060432 10 54 8.0 12.9 0.00 0.00 0.00 90 1018.6
20260508060027 10 31 6.4 12.9 0.00 0.00 0.00 90 1018.6
20260508054851 10 55 4.8 9.7 0.00 0.00 0.00 90 1018.6
20260508054352 10 52 4.8 9.7 0.00 0.00 0.00 90 1018.6
20260508053939 10 51 4.8 11.3 0.00 0.00 0.00 90 1018.6
20260508052918 10 73 6.4 11.3 0.00 0.00 0.00 90 1018.5
20260508052532 10 39 6.4 11.3 0.00 0.00 0.00 90 1018.5
20260508052113 10 75 6.4 11.3 0.00 0.00 0.00 90 1018.4
20260508050406 10 30 8.0 12.9 0.00 0.00 0.00 90 1018.3
20260508045907 10 81 8.0 12.9 0.00 0.00 0.00 90 1018.3
20260508045503 10 82 6.4 12.9 0.00 0.00 0.00 90 1018.3
20260508045023 10 42 6.4 12.9 0.00 0.00 0.00 90 1018.2
20260508043854 10 74 8.0 12.9 0.00 0.00 0.00 90 1018.2
20260508043349 10 33 8.0 12.9 0.00 0.00 0.00 90 1018.2
20260508042848 10 65 8.0 12.9 0.00 0.00 0.00 90 1018.2
20260508042349 10 60 8.0 14.5 0.00 0.00 0.00 90 1018.2
20260508041847 10 52 9.7 14.5 0.00 0.00 0.00 89 1018.2
20260508041349 10 71 8.0 14.5 0.00 0.00 0.00 89 1018.2
20260508040849 10 73 8.0 12.9 0.00 0.00 0.00 89 1018.2
20260508040350 10 44 9.7 12.9 0.00 0.00 0.00 89 1018.2
20260508035901 10 75 8.0 12.9 0.00 0.00 0.00 89 1018.1
20260508035355 10 65 8.0 12.9 0.00 0.00 0.00 89 1018.2
20260508034850 10 76 8.0 12.9 0.00 0.00 0.00 89 1018.1
20260508034349 10 54 8.0 12.9 0.00 0.00 0.00 88 1018.0
20260508033851 10 81 8.0 12.9 0.00 0.00 0.00 88 1018.0
20260508033348 10 75 9.7 12.9 0.00 0.00 0.00 88 1018.0
20260508032845 10 74 9.7 12.9 0.00 0.00 0.00 88 1018.0
20260508032349 10 67 9.7 12.9 0.00 0.00 0.00 88 1018.0
20260508031854 10 67 9.7 12.9 0.00 0.00 0.00 88 1018.0
20260508031343 10 62 9.7 12.9 0.00 0.00 0.00 88 1018.0
20260508030843 10 68 11.3 14.5 0.00 0.00 0.00 87 1018.0
20260508030344 10 77 9.7 14.5 0.00 0.00 0.00 87 1017.9
20260508025909 10 54 8.0 14.5 0.00 0.00 0.00 87 1017.9
20260508024843 11 62 6.4 11.3 0.00 0.00 0.00 87 1017.9
20260508024341 11 43 6.4 11.3 0.00 0.00 0.00 87 1017.9
20260508023842 11 68 4.8 11.3 0.00 0.00 0.00 87 1017.9
20260508023341 11 63 4.8 9.7 0.00 0.00 0.00 87 1017.9
20260508022841 11 62 3.2 9.7 0.00 0.00 0.00 87 1018.0
20260508022342 11 47 3.2 6.4 0.00 0.00 0.00 86 1017.9
20260508021851 11 44 4.8 6.4 0.00 0.00 0.00 86 1017.9
20260508021341 11 59 4.8 6.4 0.00 0.00 0.00 86 1017.9
20260508020909 11 53 4.8 6.4 0.00 0.00 0.00 86 1017.8
20260508015910 11 54 4.8 9.7 0.00 0.00 0.00 86 1017.9
20260508014839 11 68 4.8 9.7 0.00 0.00 0.00 86 1017.9
20260508014342 11 46 6.4 9.7 0.00 0.00 0.00 85 1017.8
20260508013841 11 60 4.8 9.7 0.00 0.00 0.00 85 1017.8
20260508013339 11 60 6.4 11.3 0.00 0.00 0.00 85 1017.8
20260508012842 11 50 6.4 11.3 0.00 0.00 0.00 85 1017.9
20260508012341 11 71 6.4 11.3 0.00 0.00 0.00 85 1017.8
20260508011921 11 70 6.4 11.3 0.00 0.00 0.00 85 1017.9
20260508010840 11 50 4.8 9.7 0.00 0.00 0.00 85 1017.8
20260508010343 11 76 6.4 11.3 0.00 0.00 0.00 84 1017.9
20260508005839 11 57 6.4 11.3 0.00 0.00 0.00 84 1017.9
20260508005339 11 69 6.4 11.3 0.00 0.00 0.00 84 1017.8
20260508004840 11 61 6.4 12.9 0.00 0.00 0.00 84 1018.0
20260508004338 11 66 6.4 12.9 0.00 0.00 0.00 84 1018.0
20260508003841 11 62 4.8 9.7 0.00 0.00 0.00 84 1017.9
20260508002847 11 62 4.8 9.7 0.00 0.00 0.00 83 1018.0
20260508002438 11 67 4.8 9.7 0.00 0.00 0.00 83 1018.0
20260508001338 11 64 4.8 9.7 0.00 0.00 0.00 82 1018.0
20260508000841 11 62 4.8 9.7 0.00 0.00 0.00 81 1017.9
20260508000338 12 62 4.8 9.7 0.00 0.00 0.00 81 1017.9
20260507235838 12 67 4.8 9.7 0.00 0.00 0.00 81 1018.0
20260507235338 12 66 4.8 9.7 0.00 0.00 0.00 80 1018.0
20260507234836 12 56 4.8 9.7 0.00 0.00 0.00 80 1018.0
20260507234411 12 59 4.8 9.7 0.00 0.00 0.00 80 1018.1